Location: Althorst
(53.6379°N, 10.7715°E)
Time: 06:30:33
(UTC+00:00)

IRS-1C Rocket - Pass Details

Date: 10 December 2019
Orbit: 800 x 806 km, 99.0° (Epoch: 19 January)

Event Time Altitude Azimuth Distance (km) Brightness Sun altitude
Rises 16:05:49 0° 155° (SSE) 3,310 7.3 -9.4°
Reaches altitude 10° 16:08:08 10° 154° (SSE) 2,383 6.6 -9.7°
Maximum altitude 16:13:23 74° 70° (ENE) 842 4.0 -10.4°
Drops below altitude 10° 16:18:40 10° 346° (NNW) 2,396 6.5 -11.1°
Sets 16:21:01 0° 345° (NNW) 3,330 7.2 -11.5°
